Location: Artiguedieu
(43.5000°N, 0.5454°E)
Time: 00:24:44
(UTC+00:00)

Transit 2A Rocket - Pass Details

Date: 04 August 2021
Orbit: 586 x 916 km, 66.7° (Epoch: 16 September)

Event Time Altitude Azimuth Distance (km) Brightness Sun altitude
Rises 15:06:48 0° 266° (W) 2,909 8.8 43.3°
Reaches altitude 10° 15:10:04 10° 292° (WNW) 2,062 7.9 42.8°
Maximum altitude 15:12:32 14° 325° (NW) 1,848 7.3 42.3°
Drops below altitude 10° 15:15:08 10° 357° (N) 2,169 7.3 41.9°
Sets 15:18:44 0° 22° (NNE) 3,174 7.9 41.3°
